Content
SEND FEEDBACK

Daily
Averages
Monthly
Summary
United States of America

WAHWEAP, ARIZONA


Home > North America > United States > Arizona
Elevation: 3703 feet     Latitude: 36 59N     Longitude: 111 29W

WEATHER
 
SELECT A DAY
Number of Records: 194,870;   Date Range: 1/1/95 - 9/3/14
 
SHARE

PRINT THIS DATA

[ ← Previous Day ]
WEATHER ALMANAC - OCTOBER 8, 2013
[ Next Day → ]
[ °C ]   °F
We're sorry. There is no daily almanac available for Wahweap, Arizona on October 8, 2013.
WEATHER BY HOUR - OCTOBER 8, 2013
[ °C ]   °F
Local TimeTemperatureDewpointHumidityBarometerVisibilityWind DirectionWind SpeedGust SpeedPrecipitationEventsConditions
1:53 AM55.9 °F30.0 °F37 %29.85 in10.0 miCalmClear
2:53 AM53.1 °F30.0 °F41 %29.85 in10.0 miCalmClear
3:53 AM51.1 °F30.0 °F44 %29.85 in10.0 miCalmClear
4:53 AM51.1 °F30.0 °F44 %29.84 in10.0 miCalmClear
5:53 AM50.0 °F30.9 °F48 %29.86 in10.0 miCalmClear
6:53 AM51.1 °F30.9 °F46 %29.85 in10.0 miWest (280°)3.5 mphClear
7:53 AM57.0 °F30.9 °F37 %29.85 in10.0 miCalmClear
8:53 AM61.0 °F28.9 °F30 %29.84 in10.0 miNNW (340°)3.5 mphClear
9:53 AM63.0 °F28.9 °F28 %29.84 in10.0 miVariable4.6 mphClear
10:53 AM66.0 °F28.0 °F24 %29.83 in10.0 miCalmClear
11:53 AM71.1 °F28.0 °F20 %29.78 in10.0 miNNE (20°)6.9 mphClear
12:53 PM73.9 °F21.9 °F14 %29.74 in10.0 miNorth (360°)4.6 mphClear
1:53 PM75.9 °F21.9 °F13 %29.70 in10.0 miVariable3.5 mphClear
2:53 PM78.1 °F19.0 °F11 %29.68 in10.0 miNNW (330°)3.5 mphClear
3:53 PM78.1 °F16.0 °F10 %29.66 in10.0 miVariable4.6 mph29.9 mphClear
4:53 PM77.0 °F17.1 °F10 %29.64 in10.0 miSW (230°)5.8 mphClear
5:53 PM73.9 °F16.0 °F11 %29.64 in10.0 miSSW (200°)5.8 mphClear
6:53 PM73.9 °F19.0 °F13 %29.65 in10.0 miSW (220°)5.8 mphClear
7:53 PM69.1 °F19.9 °F15 %29.65 in10.0 miSSW (200°)4.6 mphClear
8:53 PM66.9 °F19.0 °F16 %29.65 in10.0 miSSW (200°)5.8 mphClear
9:53 PM66.9 °F21.0 °F17 %29.65 in10.0 miSSW (200°)5.8 mphClear
10:53 PM66.0 °F23.0 °F20 %29.65 in10.0 miSSW (210°)5.8 mphClear
11:53 PM64.9 °F24.1 °F21 %29.64 in10.0 miSSW (200°)8.1 mphClear
Hourly data recorded from KPGA, located miles away from Wahweap, Arizona







STORIES FROM OUR PARTNERS